ZF1RC George Town KY current weather conditions

sailwx.info

Wind from 088 at 2 knots gusting 2

Air temperature 26.7° C
Dewpoint 23.9° C

Last reported at 2015-Jul-01 11:50 UTC.
Time now 2015-Jul-01 12:47 UTC

Location: N 19°16' W 081°23'.
View on Google Maps.

See reports from other nearby stations

  
Tides and Currents Weather Stations Pressure Air Temp Water Temp Dewpoint Dewpoint Depression Visibility Wind Speed Wind Dir Waves Ship Positions
date/time (UTC)wind fromknots sea level pressurealtimeterstation pressurevisibilityair tempwater tempwave heightnotes
2015-Jul-01 11:50 088 2 gusting 2 26.7
2015-Jul-01 11:40 121 2 gusting 2 26.1
2015-Jul-01 11:30 101 3 gusting 5 26.1
2015-Jul-01 11:20 094 1 gusting 2 26.1
2015-Jul-01 11:10 067 1 gusting 1 25.6
2015-Jul-01 11:00 070 1 gusting 1 25.6
2015-Jul-01 10:50 084 2 gusting 2 25.6
2015-Jul-01 10:40 044 2 gusting 5 25.6
2015-Jul-01 10:30 117 2 gusting 4 25.6
2015-Jul-01 10:20 090 1 gusting 4 25.6
2015-Jul-01 10:10 090 0 gusting 1 25.6
2015-Jul-01 10:00 105 1 gusting 1 25.6
2015-Jul-01 09:50 092 1 gusting 1 25.6
2015-Jul-01 09:40 119 1 gusting 1 26.1
2015-Jul-01 09:30 028 1 gusting 2 26.1
2015-Jul-01 09:20 071 1 gusting 1 26.1
2015-Jul-01 09:10 095 1 gusting 1 26.1
2015-Jul-01 09:00 094 1 gusting 1 26.1
2015-Jul-01 08:50 103 1 gusting 1 26.1
2015-Jul-01 08:40 068 1 gusting 2 26.1
2015-Jul-01 08:30 089 1 gusting 2 26.1
2015-Jul-01 08:20 090 2 gusting 2 26.1
2015-Jul-01 08:10 040 1 gusting 2 26.1
2015-Jul-01 08:00 044 0 gusting 2 25.6
2015-Jul-01 07:50 058 1 gusting 2 26.1
2015-Jul-01 07:40 088 1 gusting 1 26.1
2015-Jul-01 07:30 102 1 gusting 2 25.6
2015-Jul-01 07:20 090 1 gusting 2 25.6
2015-Jul-01 07:10 097 2 gusting 2 26.1
2015-Jul-01 07:00 099 2 gusting 2 26.1
2015-Jul-01 06:50 095 1 gusting 2 26.1
2015-Jul-01 06:40 113 1 gusting 2 26.1
2015-Jul-01 06:30 070 1 gusting 4 26.1
2015-Jul-01 06:20 084 2 gusting 4 26.1
2015-Jul-01 06:10 094 2 gusting 4 26.1
2015-Jul-01 06:00 096 1 gusting 1 26.1
2015-Jul-01 05:50 061 2 gusting 4 26.7
2015-Jul-01 05:40 107 2 gusting 2 26.1
2015-Jul-01 05:30 086 2 gusting 2 26.7
2015-Jul-01 05:20 064 2 gusting 2 26.7
2015-Jul-01 05:10 065 2 gusting 2 26.7
2015-Jul-01 05:00 076 1 gusting 4 26.7
2015-Jul-01 04:50 100 1 gusting 1 26.7
2015-Jul-01 04:40 082 1 gusting 2 26.7
2015-Jul-01 04:30 077 1 gusting 4 26.7
2015-Jul-01 04:20 082 1 gusting 2 27.2
2015-Jul-01 04:10 059 2 gusting 4 27.2
2015-Jul-01 04:00 145 0 gusting 1 27.2
2015-Jul-01 03:50 129 27.2
2015-Jul-01 03:40 087 0 gusting 2 27.2
2015-Jul-01 03:30 250 27.2
2015-Jul-01 03:20 062 0 gusting 6 27.2
2015-Jul-01 03:10 140 2 gusting 6 27.2
2015-Jul-01 03:00 112 1 gusting 6 27.2
2015-Jul-01 02:50 114 4 gusting 5 27.2
2015-Jul-01 02:40 103 4 gusting 5 27.2
2015-Jul-01 02:30 063 2 gusting 5 27.2
2015-Jul-01 02:20 075 3 gusting 6 27.8
2015-Jul-01 02:10 089 2 gusting 6 27.8
2015-Jul-01 02:00 053 1 gusting 6 27.8
2015-Jul-01 01:50 041 4 gusting 5 27.8
2015-Jul-01 01:40 064 2 gusting 5 27.8
2015-Jul-01 01:30 103 3 gusting 5 27.8
2015-Jul-01 01:20 109 0 gusting 6 27.8
2015-Jul-01 01:10 115 4 gusting 7 28.3
2015-Jul-01 01:00 090 2 gusting 6 28.3
2015-Jul-01 00:50 120 2 gusting 6 28.3
2015-Jul-01 00:40 085 5 gusting 7 28.3
2015-Jul-01 00:30 034 2 gusting 6 28.3
2015-Jul-01 00:20 071 4 gusting 6 28.3
2015-Jul-01 00:10 076 1 gusting 6 28.3
2015-Jul-01 00:00 084 3 gusting 7 28.3
2015-Jun-30 23:50 080 1 gusting 6 28.3
2015-Jun-30 23:40 086 4 gusting 6 28.3
2015-Jun-30 23:30 071 4 gusting 6 28.9
2015-Jun-30 23:20 102 6 gusting 7 28.9
2015-Jun-30 23:10 089 2 gusting 6 28.9
2015-Jun-30 23:00 107 5 gusting 6 28.9
2015-Jun-30 22:54 096 4 gusting 6 29.4
2015-Jun-30 22:50 081 2 gusting 7 29.4
2015-Jun-30 22:40 014 4 gusting 6 29.4
2015-Jun-30 22:20 079 4 gusting 6 30.0
2015-Jun-30 22:10 106 6 gusting 10 30.0
2015-Jun-30 22:00 079 6 gusting 7 30.0
2015-Jun-30 21:50 082 4 gusting 6 30.6
2015-Jun-30 21:40 074 4 gusting 7 30.6
2015-Jun-30 21:30 093 6 gusting 6 30.6
2015-Jun-30 21:20 086 5 gusting 6 30.0
2015-Jun-30 21:10 047 7 gusting 7 30.6
2015-Jun-30 21:00 098 2 gusting 2 30.6
2015-Jun-30 20:50 271 0 gusting 0 31.1
2015-Jun-30 20:40 010 0 gusting 0 31.7
2015-Jun-30 20:30 080 0 gusting 0 32.2
2015-Jun-30 20:20 105 32.2
2015-Jun-30 20:10 117 2 gusting 4 31.7
2015-Jun-30 20:00 096 32.2
2015-Jun-30 19:50 195 0 gusting 4 31.7
2015-Jun-30 19:40 100 2 gusting 4 32.2
2015-Jun-30 19:30 040 0 gusting 0 32.2
2015-Jun-30 19:20 322 0 gusting 0 32.2
2015-Jun-30 19:10 064 0 gusting 0 32.2
2015-Jun-30 19:00 332 1 gusting 2 32.2
2015-Jun-30 18:50 040 0 gusting 1 31.7
2015-Jun-30 18:40 096 32.2
2015-Jun-30 18:30 065 1 gusting 2 31.7
2015-Jun-30 18:20 245 32.2
2015-Jun-30 18:10 115 32.2
2015-Jun-30 18:00 176 32.2
2015-Jun-30 17:50 120 0 gusting 2 32.2
2015-Jun-30 17:40 089 1 gusting 1 32.2
2015-Jun-30 17:30 147 0 gusting 4 31.7
2015-Jun-30 17:20 148 0 gusting 2 31.7
2015-Jun-30 17:10 262 0 gusting 5 31.7
2015-Jun-30 17:00 148 1 gusting 2 31.7
2015-Jun-30 16:50 222 31.7
2015-Jun-30 16:40 079 10 gusting 11 31.7
2015-Jun-30 16:30 157 0 gusting 7 31.7
2015-Jun-30 16:20 055 0 gusting 2 31.1
2015-Jun-30 16:10 340 0 gusting 6 31.1
2015-Jun-30 16:00 308 1 gusting 4 30.6
2015-Jun-30 15:50 089 1 gusting 6 30.6
2015-Jun-30 15:40 179 2 gusting 6 30.6
2015-Jun-30 15:30 107 6 gusting 11 30.6
2015-Jun-30 15:20 327 0 gusting 10 30.6
2015-Jun-30 15:10 078 1 gusting 4 30.6
2015-Jun-30 15:00 090 1 gusting 4 30.6
2015-Jun-30 14:50 333 0 gusting 2 30.6
2015-Jun-30 14:40 137 2 gusting 4 30.6
2015-Jun-30 14:30 182 0 gusting 0 31.1
2015-Jun-30 14:20 013 0 gusting 7 30.6
2015-Jun-30 14:10 234 0 gusting 2 30.6
2015-Jun-30 14:00 060 5 gusting 8 30.6
2015-Jun-30 13:50 028 1 gusting 10 30.0
2015-Jun-30 13:40 090 6 gusting 6 29.4
2015-Jun-30 13:30 195 1 gusting 5 29.4
2015-Jun-30 13:20 116 5 gusting 7 28.9
2015-Jun-30 13:10 100 6 gusting 8 28.9
2015-Jun-30 13:00 082 2 gusting 7 28.3
2015-Jun-30 12:50 114 4 gusting 6 28.3
2015-Jun-30 12:40 100 5 gusting 7 28.3
2015-Jun-30 12:30 125 2 gusting 4 27.8
2015-Jun-30 12:20 085 3 gusting 5 27.8
2015-Jun-30 12:10 022 2 gusting 6 27.2
2015-Jun-30 12:00 081 3 gusting 5 26.7
2015-Jun-30 11:50 097 4 gusting 4 26.7
2015-Jun-30 11:40 104 2 gusting 4 26.1
2015-Jun-30 11:30 084 3 gusting 6 26.1
2015-Jun-30 11:20 112 3 gusting 4 26.1
2015-Jun-30 11:10 105 2 gusting 4 26.1
2015-Jun-30 11:00 118 1 gusting 4 26.1
2015-Jun-30 10:50 115 1 gusting 4 26.1
2015-Jun-30 10:40 085 4 gusting 5 26.1
2015-Jun-30 10:30 057 1 gusting 4 26.1
2015-Jun-30 10:20 072 4 gusting 4 26.1
2015-Jun-30 10:10 120 3 gusting 5 26.1
2015-Jun-30 10:00 157 3 gusting 5 26.1
2015-Jun-30 09:50 100 2 gusting 5 26.1
2015-Jun-30 09:40 029 2 gusting 5 26.1
2015-Jun-30 09:30 072 1 gusting 4 26.1
2015-Jun-30 09:20 104 3 gusting 4 26.1
2015-Jun-30 09:10 126 1 gusting 4 26.1
2015-Jun-30 09:00 116 1 gusting 5 26.1
2015-Jun-30 08:50 100 2 gusting 6 26.1
2015-Jun-30 08:40 073 2 gusting 5 26.1
2015-Jun-30 08:30 108 2 gusting 4 26.7
2015-Jun-30 08:20 151 2 gusting 4 26.7
2015-Jun-30 08:10 069 0 gusting 5 26.7
2015-Jun-30 08:00 079 2 gusting 6 26.1
2015-Jun-30 07:50 097 2 gusting 4 26.7
2015-Jun-30 07:40 114 2 gusting 5 26.7
2015-Jun-30 07:30 109 4 gusting 4 26.7
2015-Jun-30 07:20 144 3 gusting 7 26.7
2015-Jun-30 07:10 087 3 gusting 5 26.7
2015-Jun-30 07:00 098 2 gusting 5 26.7
2015-Jun-30 06:50 039 2 gusting 5 26.7
2015-Jun-30 06:40 103 5 gusting 6 26.7
2015-Jun-30 06:30 070 2 gusting 5 26.7
2015-Jun-30 06:20 083 2 gusting 5 26.7
2015-Jun-30 06:10 063 2 gusting 4 26.7
2015-Jun-30 06:00 096 2 gusting 4 26.7
2015-Jun-30 05:50 108 1 gusting 5 26.7
2015-Jun-30 05:40 097 4 gusting 5 26.7
2015-Jun-30 05:30 119 2 gusting 5 27.2
2015-Jun-30 05:20 110 4 gusting 8 27.2
2015-Jun-30 05:10 046 2 gusting 5 26.7
2015-Jun-30 05:00 070 2 gusting 5 26.7
2015-Jun-30 04:50 110 2 gusting 5 26.7
2015-Jun-30 04:40 093 2 gusting 4 27.2
2015-Jun-30 04:30 079 2 gusting 4 27.2
2015-Jun-30 04:20 087 2 gusting 4 27.2
2015-Jun-30 04:10 122 1 gusting 4 27.2
2015-Jun-30 04:00 074 3 gusting 4 27.2
2015-Jun-30 03:50 093 0 gusting 2 27.8
2015-Jun-30 03:40 097 3 gusting 5 27.8
2015-Jun-30 03:30 073 2 gusting 4 27.8
2015-Jun-30 03:20 106 2 gusting 4 27.8
2015-Jun-30 03:10 083 2 gusting 2 27.8
2015-Jun-30 03:00 120 2 gusting 6 27.8
2015-Jun-30 02:50 045 2 gusting 4 27.8
2015-Jun-30 02:40 073 1 gusting 4 27.8
2015-Jun-30 02:30 119 1 gusting 4 27.8
2015-Jun-30 02:20 085 2 gusting 2 27.8
2015-Jun-30 02:10 030 3 gusting 5 27.8
2015-Jun-30 02:00 074 2 gusting 4 27.8
2015-Jun-30 01:50 100 2 gusting 6 27.8
2015-Jun-30 01:40 062 3 gusting 6 27.8
2015-Jun-30 01:30 093 2 gusting 4 27.8
2015-Jun-30 01:20 075 3 gusting 4 27.8
2015-Jun-30 01:10 100 2 gusting 4 27.8
2015-Jun-30 01:00 100 3 gusting 4 27.8
2015-Jun-30 00:50 068 2 gusting 5 27.8
2015-Jun-30 00:40 111 2 gusting 4 27.8
2015-Jun-30 00:30 093 3 gusting 4 27.8
2015-Jun-30 00:20 075 0 gusting 5 27.8
2015-Jun-30 00:10 153 4 gusting 6 28.3
2015-Jun-30 00:00 121 0 gusting 2 28.3
2015-Jun-29 23:50 099 3 gusting 4 28.9
2015-Jun-29 23:40 088 0 gusting 1 28.9
2015-Jun-29 23:30 105 0 gusting 0 29.4
2015-Jun-29 23:20 162 0 gusting 4 29.4
2015-Jun-29 23:10 137 1 gusting 4 29.4
2015-Jun-29 23:00 089 2 gusting 5 30.0
2015-Jun-29 22:54 140 1 gusting 2 30.0
2015-Jun-29 22:50 112 2 gusting 6 30.0
2015-Jun-29 22:40 123 1 gusting 1 30.6
2015-Jun-29 22:30 114 0 gusting 4 30.6
2015-Jun-29 22:20 255 30.6
2015-Jun-29 22:10 130 1 gusting 5 31.1
2015-Jun-29 22:00 123 31.1
2015-Jun-29 21:50 199 0 gusting 1 31.1
2015-Jun-29 21:40 017 31.7
2015-Jun-29 21:30 084 0 gusting 1 31.7
2015-Jun-29 21:20 194 0 gusting 1 31.7
2015-Jun-29 21:10 257 31.7
2015-Jun-29 21:00 090 31.7
2015-Jun-29 20:50 178 31.7
2015-Jun-29 20:40 049 0 gusting 4 31.7
2015-Jun-29 20:30 261 32.2
2015-Jun-29 20:20 180 3 gusting 4 32.2
2015-Jun-29 20:10 351 31.7
2015-Jun-29 20:00 324 0 gusting 4 32.2
2015-Jun-29 19:50 089 0 gusting 2 32.2
2015-Jun-29 19:40 156 32.2
2015-Jun-29 19:30 274 0 gusting 5 32.2
2015-Jun-29 19:20 161 0 gusting 1 32.2
2015-Jun-29 19:10 130 1 gusting 6 31.7
2015-Jun-29 19:00 087 2 gusting 5 31.7
2015-Jun-29 18:50 108 5 gusting 8 31.7
2015-Jun-29 18:40 075 1 gusting 2 32.2
2015-Jun-29 18:30 151 4 gusting 6 32.2
2015-Jun-29 18:20 306 0 gusting 2 32.2
2015-Jun-29 18:10 087 0 gusting 1 32.2
2015-Jun-29 18:00 250 32.2
2015-Jun-29 17:50 206 0 gusting 2 32.2
2015-Jun-29 17:40 114 0 gusting 4 31.7
2015-Jun-29 17:30 131 31.7
2015-Jun-29 17:20 031 0 gusting 2 31.7
2015-Jun-29 17:00 275 0 gusting 4 31.7
2015-Jun-29 16:50 074 1 gusting 1 31.7
2015-Jun-29 16:40 078 0 gusting 2 32.2
2015-Jun-29 16:30 244 0 gusting 1 32.2
2015-Jun-29 16:20 250 0 gusting 1 32.2
2015-Jun-29 16:10 323 0 gusting 1 32.2
2015-Jun-29 16:00 065 0 gusting 8 31.7
2015-Jun-29 15:50 151 0 gusting 1 31.7
2015-Jun-29 15:40 069 0 gusting 2 31.7
2015-Jun-29 15:30 108 0 gusting 2 31.7
2015-Jun-29 15:20 110 2 gusting 6 31.1
2015-Jun-29 15:10 063 2 gusting 4 31.1
2015-Jun-29 15:00 092 2 gusting 4 31.7
2015-Jun-29 14:50 243 3 gusting 5 31.1
2015-Jun-29 14:40 005 2 gusting 5 30.6
2015-Jun-29 14:30 087 7 gusting 7 30.6
2015-Jun-29 14:20 264 0 gusting 4 31.1
2015-Jun-29 14:10 090 2 gusting 13 30.6
2015-Jun-29 14:00 079 5 gusting 6 30.6
2015-Jun-29 13:50 131 1 gusting 8 30.0
2015-Jun-29 13:40 253 3 gusting 6 30.0
2015-Jun-29 13:30 083 6 gusting 6 29.4
2015-Jun-29 13:20 112 1 gusting 7 29.4
2015-Jun-29 13:10 099 4 gusting 10 29.4
2015-Jun-29 13:00 005 1 gusting 7 29.4
2015-Jun-29 12:50 110 4 gusting 7 28.9
2015-Jun-29 12:40 094 4 gusting 6 28.3
2015-Jun-29 12:30 122 6 gusting 6 28.3
2015-Jun-29 12:20 146 2 gusting 6 27.8
2015-Jun-29 12:10 118 2 gusting 6 27.8
2015-Jun-29 12:00 102 2 gusting 6 27.2